RH
57 53 48 45 41 38 34 31 28 25 24 23 22 18 14 11 10 8 6 5 4 4 4 4 4 3 3
31 31 32 31 30 29 25 25 24 20 19 17 16 15 15 13 9 7 6 5 4 3 3 3 3 2 3
33 30 28 26 26 26 25 23 20 17 13 10 9 8 8 7 7 7 5 4 3 3 3 2 2 2 2
23 20 19 15 15 15 15 15 16 16 16 14 11 9 7 6 5 4 4 4 4 3 3 3 2 2 2
14 13 12 11 11 12 11 10 10 10 10 11 12 12 12 10 9 8 6 6 5 5 4 4 3 3 3
15 13 14 14 15 15 14 14 12 17 15 12 12 11 12 12 12 12 11 10 9 7 7 7 6 5 4
20 21 22 25 25 22 23 21 20 21 23 18 21 19 19 16 14 14 15 15 14 13 12 11 9 8 7
32 30 33 39 41 38 36 34 31 32 42 27 28 22 24 23 24 24 25 25 21 20 19 16 14 12 11
38 39 40 42 46 46 46 44 40 39 45 43 36 36 39 32 30 30 30 30 29 27 25 22 19 18 15
51 51 49 46 48 51 54 52 50 47 50 54 52 50 40 35 37 35 34 34 33 31 30 29 27 25 21
52 45 48 50 52 56 60 65 57 46 46 48 48 49 48 43 35 35 34 34 32 33 33 33 32 32 30
87 68 66 56 44 42 40 38 38 39 36 33 32 34 35 36 38 35 34 33 33 32 32 31 32 34 34
90 63 54 62 65 61 53 46 41 40 39 38 34 34 33 30 29 29 30 30 31 30 30 29 30 33 36
68 64 62 62 62 68 62 53 45 38 40 44 44 40 34 33 34 30 29 27 26 27 28 28 31 38 41
88 80 76 74 72 73 72 70 60 51 48 50 58 57 51 46 40 45 42 35 36 33 39 30 36 49 52
80 79 76 75 73 74 75 77 76 76 71 62 61 64 68 64 72 64 67 62 68 70 68 55 47 56 58
85 82 81 79 78 74 74 80 81 83 81 84 77 68 66 63 67 93 97 90 86 76 75 73 68 62 62
Wind_Speed
39 39 39 39 41 43 43 44 44 44 46 47 47 47 48 48 49 50 51 51 51 51 52 52 51 51 52
35 37 38 40 41 42 40 42 43 44 46 46 46 46 47 48 48 49 51 51 52 52 52 53 52 51 51
34 36 37 37 40 41 40 41 42 43 44 44 44 45 46 45 46 47 49 50 51 51 52 52 52 52 52
36 34 37 35 39 38 41 41 40 42 42 43 41 42 43 43 44 44 45 47 49 50 50 51 51 52 52
36 36 34 34 36 37 41 41 40 39 40 41 41 40 40 41 41 41 42 43 45 47 49 50 51 52 52
35 36 35 33 33 35 37 39 40 36 37 38 38 39 40 39 39 39 39 41 43 46 47 49 50 51 52
35 34 34 32 33 35 35 36 38 36 37 40 35 38 37 39 39 39 38 39 41 43 45 48 49 50 51
33 33 33 31 31 32 34 36 37 36 34 42 36 38 37 38 36 36 37 38 40 42 45 46 47 47 48
32 33 31 30 30 31 32 34 37 35 35 39 37 37 39 38 35 34 35 38 40 42 44 45 46 47 48
30 30 29 29 30 30 31 34 35 37 34 37 38 40 44 41 38 35 36 36 38 41 43 44 45 46 48
28 29 28 28 29 30 31 34 38 40 37 37 40 41 43 46 41 38 38 37 38 39 40 41 42 43 46
28 29 30 31 32 33 33 35 37 41 41 40 43 43 44 46 49 43 41 40 39 40 39 39 40 41 42
33 31 29 29 29 30 32 34 36 38 40 40 42 44 45 46 46 45 44 41 40 39 38 38 39 40 42
27 27 27 27 28 29 30 30 33 33 33 34 36 37 40 42 43 43 41 41 38 36 37 39 39 39 40
26 26 26 27 27 27 29 29 31 31 29 27 27 30 33 35 38 39 38 37 34 34 36 38 37 37 37
26 25 26 27 27 27 28 29 29 27 28 26 27 28 31 33 33 35 34 34 32 32 35 37 37 34 36
27 26 26 27 27 27 27 28 28 28 26 25 25 28 31 34 27 29 34 34 34 34 33 35 38 37 37
Wind_Direction
267 266 265 264 264 265 266 267 267 267 266 265 264 264 263 262 262 263 263 263 262 260 257 255 254 253 252
267 269 269 269 267 265 265 264 265 266 266 267 266 265 263 262 262 261 262 262 262 264 264 262 261 260 256
269 270 271 271 271 271 269 267 266 265 265 266 266 267 266 263 262 261 260 260 259 260 261 263 263 263 264
276 273 273 272 273 272 269 269 267 267 267 266 265 264 264 263 261 259 259 259 259 259 258 258 258 260 261
280 278 275 275 274 272 273 271 268 267 266 266 266 265 263 262 262 261 258 256 254 254 255 256 257 256 257
280 280 280 276 274 272 273 273 273 272 274 268 266 264 266 264 262 260 260 258 255 253 252 252 252 254 256
277 277 280 280 275 273 274 275 276 277 274 272 268 268 266 265 265 263 260 257 257 256 254 253 253 252 252
274 275 275 277 277 278 277 276 275 277 277 275 274 272 268 265 264 263 262 261 258 256 256 256 255 254 253
268 270 273 275 279 279 277 277 277 277 272 276 276 274 270 267 264 262 259 258 259 260 260 260 260 258 257
267 272 275 275 274 276 279 278 277 274 274 277 276 275 273 270 271 267 263 260 258 257 258 259 259 260 261
272 271 274 277 277 277 276 277 278 277 278 273 272 271 272 277 271 267 265 263 261 259 258 259 259 259 260
273 277 281 283 283 282 280 277 275 275 276 274 274 273 271 271 273 270 266 265 263 262 262 261 260 260 260
273 279 280 281 283 285 284 282 280 278 278 277 274 274 273 271 272 272 271 266 264 265 264 262 259 257 257
278 279 280 281 283 287 289 289 285 282 280 278 275 272 271 271 272 271 271 270 267 265 264 260 259 259 258
282 284 284 285 286 288 289 292 292 290 287 282 279 275 271 270 269 270 271 272 271 268 266 262 259 259 259
283 284 286 287 287 286 287 289 291 295 294 291 285 278 274 271 273 276 276 277 273 269 267 269 266 264 262
284 286 287 288 289 291 290 289 289 291 293 295 291 286 283 280 275 271 277 274 273 273 275 273 272 269 269